,,,PA_Meas_PMT16A,,PR_Meas_QMR101_102,,RH_Meas_QMH101,,SR_Meas_QMS101,,TA_Meas_QMH101,,GenWind,,GenWind,
date,time,status,PA,status,PR,status,RH,status,SR,status,TA,status,DirAvg,status,SpdAvg,
2012-02-12, 00:00:04,VALID,1009.29,VALID,0,VALID,104,VALID,0,VALID,23.2459,VALID,360,VALID,0,
2012-02-12, 00:01:04,VALID,1009.27,VALID,0,VALID,104,VALID,0,VALID,23.2459,VALID,360,VALID,0,
2012-02-12, 00:02:04,VALID,1009.25,VALID,0,VALID,104,VALID,0,VALID,23.2476,VALID,360,VALID,0,
2012-02-12, 00:03:04,VALID,1009.24,VALID,0,VALID,104,VALID,0,VALID,23.2476,VALID,360,VALID,0,
2012-02-12, 00:04:04,VALID,1009.24,VALID,0,VALID,104,VALID,0,VALID,23.2264,VALID,360,VALID,0,
2012-02-12, 00:05:04,VALID,1009.21,VALID,0,VALID,104,VALID,0,VALID,23.2069,VALID,360,VALID,0,
2012-02-12, 00:06:04,VALID,1009.21,VALID,0,VALID,104,VALID,0,VALID,23.2069,VALID,360,VALID,0,
2012-02-12, 00:07:04,VALID,1009.18,VALID,0,VALID,104,VALID,0,VALID,23.1874,VALID,360,VALID,0,
2012-02-12, 00:08:04,VALID,1009.17,VALID,0,VALID,104,VALID,0,VALID,23.2087,VALID,360,VALID,0,
2012-02-12, 00:09:04,VALID,1009.14,VALID,0,VALID,104,VALID,0,VALID,23.1892,VALID,360,VALID,0,
2012-02-12, 00:10:04,VALID,1009.14,VALID,0,VALID,104,VALID,0,VALID,23.1892,VALID,360,VALID,0,
2012-02-12, 00:11:04,VALID,1009.11,VALID,0,VALID,104,VALID,0,VALID,23.1485,VALID,360,VALID,0,
2012-02-12, 00:12:04,VALID,1009.08,VALID,0,VALID,104,VALID,0,VALID,23.1485,VALID,360,VALID,0,
2012-02-12, 00:13:04,VALID,1009.08,VALID,0,VALID,104,VALID,0,VALID,23.1485,VALID,360,VALID,0,
2012-02-12, 00:14:04,VALID,1009.06,VALID,0,VALID,104,VALID,0,VALID,23.1502,VALID,360,VALID,0,
2012-02-12, 00:15:04,VALID,1009.05,VALID,0,VALID,104,VALID,0,VALID,23.1095,VALID,360,VALID,0,
2012-02-12, 00:16:04,VALID,1009.04,VALID,0,VALID,104,VALID,0,VALID,23.09,VALID,360,VALID,0,
2012-02-12, 00:17:04,VALID,1009.03,VALID,0,VALID,104,VALID,0.112112,VALID,23.09,VALID,360,VALID,0,
2012-02-12, 00:18:04,VALID,1009.02,VALID,0,VALID,104,VALID,0,VALID,23.09,VALID,360,VALID,0,
2012-02-12, 00:19:04,VALID,1009.03,VALID,0,VALID,104,VALID,0,VALID,23.0918,VALID,360,VALID,0,
2012-02-12, 00:20:04,VALID,1009,VALID,0,VALID,104,VALID,0,VALID,23.0511,VALID,360,VALID,0,
2012-02-12, 00:21:04,VALID,1009,VALID,0,VALID,104,VALID,0,VALID,23.09,VALID,360,VALID,0,
2012-02-12, 00:22:04,VALID,1008.99,VALID,0,VALID,104,VALID,0,VALID,23.1307,VALID,360,VALID,0,
2012-02-12, 00:23:04,VALID,1008.96,VALID,0,VALID,104,VALID,0.112112,VALID,23.0883,VALID,360,VALID,0,
2012-02-12, 00:24:04,VALID,1008.95,VALID,0,VALID,104,VALID,0.112112,VALID,23.0688,VALID,360,VALID,0,
2012-02-12, 00:25:04,VALID,1008.93,VALID,0,VALID,104,VALID,0.112112,VALID,23.09,VALID,360,VALID,0,
2012-02-12, 00:26:04,VALID,1008.92,VALID,0,VALID,104,VALID,0,VALID,23.0688,VALID,360,VALID,0,
2012-02-12, 00:27:04,VALID,1008.9,VALID,0,VALID,104,VALID,0.112112,VALID,23.09,VALID,360,VALID,0,
2012-02-12, 00:28:04,VALID,1008.9,VALID,0,VALID,104,VALID,0,VALID,23.0688,VALID,360,VALID,0,
2012-02-12, 00:29:04,VALID,1008.91,VALID,0,VALID,104,VALID,0.112112,VALID,23.0298,VALID,360,VALID,0,
2012-02-12, 00:30:04,VALID,1008.9,VALID,0,VALID,104,VALID,0,VALID,23.0298,VALID,360,VALID,0,
2012-02-12, 00:31:04,VALID,1008.89,VALID,0,VALID,104,VALID,0,VALID,23.0511,VALID,360,VALID,0,
2012-02-12, 00:32:04,VALID,1008.92,VALID,0,VALID,104,VALID,0.112112,VALID,23.0103,VALID,360,VALID,0,
2012-02-12, 00:33:04,VALID,1008.88,VALID,0,VALID,104,VALID,0.112112,VALID,23.0298,VALID,360,VALID,0,
2012-02-12, 00:34:04,VALID,1008.88,VALID,0,VALID,104,VALID,0.112112,VALID,23.0493,VALID,360,VALID,0,
2012-02-12, 00:35:04,VALID,1008.88,VALID,0,VALID,104,VALID,0.112112,VALID,23.09,VALID,360,VALID,0,
2012-02-12, 00:36:04,VALID,1008.83,VALID,0,VALID,104,VALID,0.112112,VALID,23.0688,VALID,360,VALID,0,
2012-02-12, 00:37:04,VALID,1008.87,VALID,0,VALID,104,VALID,0.112112,VALID,23.0493,VALID,360,VALID,0,
2012-02-12, 00:38:04,VALID,1008.85,VALID,0,VALID,104,VALID,0,VALID,23.0316,VALID,360,VALID,0,
2012-02-12, 00:39:04,VALID,1008.83,VALID,0,VALID,104,VALID,0,VALID,22.9731,VALID,360,VALID,0,
2012-02-12, 00:40:04,VALID,1008.82,VALID,0,VALID,104,VALID,0,VALID,22.9926,VALID,360,VALID,0,
2012-02-12, 00:41:04,VALID,1008.8,VALID,0,VALID,104,VALID,0,VALID,22.9926,VALID,360,VALID,0,
2012-02-12, 00:42:04,VALID,1008.76,VALID,0,VALID,104,VALID,0,VALID,22.9536,VALID,360,VALID,0,
2012-02-12, 00:43:05,VALID,1008.78,VALID,0,VALID,104,VALID,0,VALID,22.9536,VALID,360,VALID,0,
2012-02-12, 00:44:05,VALID,1008.79,VALID,0,VALID,104,VALID,0,VALID,22.9342,VALID,360,VALID,0,
2012-02-12, 00:45:05,VALID,1008.77,VALID,0,VALID,104,VALID,0,VALID,22.9342,VALID,360,VALID,0,
2012-02-12, 00:46:05,VALID,1008.78,VALID,0,VALID,104,VALID,0,VALID,22.9554,VALID,360,VALID,0,
2012-02-12, 00:47:05,VALID,1008.78,VALID,0,VALID,104,VALID,0,VALID,22.9342,VALID,360,VALID,0,
2012-02-12, 00:48:05,VALID,1008.72,VALID,0,VALID,104,VALID,0,VALID,22.9342,VALID,360,VALID,0,
2012-02-12, 00:49:05,VALID,1008.72,VALID,0,VALID,104,VALID,0,VALID,22.9536,VALID,360,VALID,0,
2012-02-12, 00:50:05,VALID,1008.71,VALID,0,VALID,104,VALID,0,VALID,22.9731,VALID,360,VALID,0,
2012-02-12, 00:51:05,VALID,1008.69,VALID,0,VALID,104,VALID,0,VALID,23.0138,VALID,360,VALID,0,
2012-02-12, 00:52:05,VALID,1008.66,VALID,0,VALID,104,VALID,0,VALID,22.9926,VALID,360,VALID,0,
2012-02-12, 00:53:05,VALID,1008.64,VALID,0,VALID,104,VALID,0,VALID,22.9943,VALID,360,VALID,0,
2012-02-12, 00:54:05,VALID,1008.65,VALID,0,VALID,104,VALID,0,VALID,22.9943,VALID,360,VALID,0,
2012-02-12, 00:55:05,VALID,1008.6,VALID,0,VALID,104,VALID,0,VALID,22.9731,VALID,360,VALID,0,
2012-02-12, 00:56:05,VALID,1008.6,VALID,0,VALID,104,VALID,0,VALID,22.9536,VALID,360,VALID,0,
2012-02-12, 00:57:05,VALID,1008.61,VALID,0,VALID,104,VALID,0,VALID,22.9536,VALID,360,VALID,0,
2012-02-12, 00:58:05,VALID,1008.6,VALID,0,VALID,104,VALID,0,VALID,22.9536,VALID,360,VALID,0,
2012-02-12, 00:59:05,VALID,1008.61,VALID,0,VALID,104,VALID,0,VALID,22.9342,VALID,360,VALID,0,
2012-02-12, 01:00:05,VALID,1008.61,VALID,0,VALID,104,VALID,0,VALID,22.9749,VALID,360,VALID,0,
2012-02-12, 01:01:05,VALID,1008.61,VALID,0,VALID,104,VALID,0,VALID,22.9731,VALID,360,VALID,0.110156,
2012-02-12, 01:02:05,VALID,1008.61,VALID,0,VALID,104,VALID,0,VALID,22.9926,VALID,360,VALID,0.314063,
2012-02-12, 01:03:05,VALID,1008.6,VALID,0,VALID,104,VALID,0,VALID,23.0333,VALID,360,VALID,0.310156,
2012-02-12, 01:04:05,VALID,1008.57,VALID,0,VALID,104,VALID,0,VALID,23.0138,VALID,360,VALID,0.297266,
2012-02-12, 01:05:05,VALID,1008.57,VALID,0,VALID,104,VALID,0,VALID,22.9926,VALID,360,VALID,0.071875,
2012-02-12, 01:06:05,VALID,1008.56,VALID,0,VALID,104,VALID,0,VALID,22.9926,VALID,360,VALID,0.135156,
2012-02-12, 01:07:05,VALID,1008.55,VALID,0,VALID,104,VALID,0,VALID,22.9926,VALID,360,VALID,0.121484,
2012-02-12, 01:08:05,VALID,1008.53,VALID,0,VALID,104,VALID,0,VALID,22.9926,VALID,360,VALID,0,
2012-02-12, 01:09:05,VALID,1008.56,VALID,0,VALID,104,VALID,0,VALID,22.9926,VALID,360,VALID,0,
2012-02-12, 01:10:05,VALID,1008.51,VALID,0,VALID,104,VALID,0,VALID,23.0121,VALID,360,VALID,0,
2012-02-12, 01:11:05,VALID,1008.5,VALID,0,VALID,104,VALID,0,VALID,22.9714,VALID,360,VALID,0,
2012-02-12, 01:12:05,VALID,1008.5,VALID,0,VALID,104,VALID,0,VALID,22.9926,VALID,360,VALID,0.0351563,
2012-02-12, 01:13:05,VALID,1008.46,VALID,0,VALID,104,VALID,0,VALID,22.9926,VALID,360,VALID,0.0800781,
2012-02-12, 01:14:05,VALID,1008.46,VALID,0,VALID,104,VALID,0,VALID,22.9554,VALID,360,VALID,0.257813,
2012-02-12, 01:15:05,VALID,1008.45,VALID,0,VALID,104,VALID,0,VALID,22.9342,VALID,360,VALID,0.13125,
2012-02-12, 01:16:05,VALID,1008.48,VALID,0,VALID,104,VALID,0,VALID,22.8757,VALID,360,VALID,0.136328,
2012-02-12, 01:17:05,VALID,1008.47,VALID,0,VALID,104,VALID,0,VALID,22.8757,VALID,360,VALID,0,
2012-02-12, 01:18:05,VALID,1008.48,VALID,0,VALID,104,VALID,0,VALID,22.8562,VALID,360,VALID,0,
2012-02-12, 01:19:05,VALID,1008.49,VALID,0,VALID,104,VALID,0,VALID,22.8562,VALID,360,VALID,0,
2012-02-12, 01:20:05,VALID,1008.48,VALID,0,VALID,104,VALID,0,VALID,22.8562,VALID,360,VALID,0,
2012-02-12, 01:21:05,VALID,1008.47,VALID,0,VALID,104,VALID,0,VALID,22.8368,VALID,360,VALID,0,
2012-02-12, 01:22:05,VALID,1008.47,VALID,0,VALID,104,VALID,0,VALID,22.7783,VALID,360,VALID,0.477734,
2012-02-12, 01:23:05,VALID,1008.47,VALID,0,VALID,104,VALID,0,VALID,22.7588,VALID,360,VALID,0.552344,
2012-02-12, 01:24:05,VALID,1008.47,VALID,0,VALID,104,VALID,0,VALID,22.7606,VALID,360,VALID,0.55,
2012-02-12, 01:25:05,VALID,1008.47,VALID,0,VALID,104,VALID,0,VALID,22.7588,VALID,360,VALID,0.310937,
2012-02-12, 01:26:05,VALID,1008.49,VALID,0,VALID,104,VALID,0,VALID,22.78,VALID,360,VALID,0.180859,
2012-02-12, 01:27:05,VALID,1008.47,VALID,0,VALID,104,VALID,0,VALID,22.7606,VALID,360,VALID,0,
2012-02-12, 01:28:05,VALID,1008.47,VALID,0,VALID,104,VALID,0,VALID,22.7606,VALID,360,VALID,0.158203,
2012-02-12, 01:29:05,VALID,1008.47,VALID,0,VALID,104,VALID,0,VALID,22.7783,VALID,360,VALID,0,
2012-02-12, 01:30:05,VALID,1008.45,VALID,0,VALID,104,VALID,0,VALID,22.8173,VALID,360,VALID,0,
2012-02-12, 01:31:05,VALID,1008.46,VALID,0,VALID,104,VALID,0,VALID,22.819,VALID,360,VALID,0.00078125,
2012-02-12, 01:32:05,VALID,1008.46,VALID,0,VALID,104,VALID,0,VALID,22.7588,VALID,360,VALID,0,
2012-02-12, 01:33:05,VALID,1008.49,VALID,0,VALID,104,VALID,0,VALID,22.7199,VALID,360,VALID,0,
2012-02-12, 01:34:05,VALID,1008.48,VALID,0,VALID,104,VALID,0,VALID,22.7004,VALID,360,VALID,0,
2012-02-12, 01:35:05,VALID,1008.48,VALID,0,VALID,104,VALID,0,VALID,22.7021,VALID,360,VALID,0,
2012-02-12, 01:36:05,VALID,1008.46,VALID,0,VALID,104,VALID,0,VALID,22.6826,VALID,360,VALID,0.00585938,
2012-02-12, 01:37:05,VALID,1008.43,VALID,0,VALID,104,VALID,0,VALID,22.7216,VALID,360,VALID,0.0394531,
2012-02-12, 01:38:05,VALID,1008.45,VALID,0,VALID,104,VALID,0,VALID,22.7394,VALID,360,VALID,0.181641,
2012-02-12, 01:39:05,VALID,1008.41,VALID,0,VALID,104,VALID,0,VALID,22.7394,VALID,360,VALID,0.00585938,
2012-02-12, 01:40:05,VALID,1008.38,VALID,0,VALID,104,VALID,0,VALID,22.7394,VALID,360,VALID,0,
2012-02-12, 01:41:05,VALID,1008.39,VALID,0,VALID,104,VALID,0,VALID,22.7411,VALID,360,VALID,0,
2012-02-12, 01:42:05,VALID,1008.36,VALID,0,VALID,104,VALID,0,VALID,22.7199,VALID,360,VALID,0,
2012-02-12, 01:43:05,VALID,1008.37,VALID,0,VALID,104,VALID,0,VALID,22.7394,VALID,360,VALID,0.0191406,
2012-02-12, 01:44:05,VALID,1008.38,VALID,0,VALID,104,VALID,0,VALID,22.7004,VALID,360,VALID,0,
2012-02-12, 01:45:05,VALID,1008.37,VALID,0,VALID,104,VALID,0,VALID,22.7004,VALID,360,VALID,0,
2012-02-12, 01:46:05,VALID,1008.41,VALID,0,VALID,104,VALID,0,VALID,22.7199,VALID,360,VALID,0,
2012-02-12, 01:47:05,VALID,1008.45,VALID,0,VALID,104,VALID,0,VALID,22.7199,VALID,360,VALID,0,
2012-02-12, 01:48:05,VALID,1008.46,VALID,0,VALID,104,VALID,0,VALID,22.7199,VALID,360,VALID,0,
2012-02-12, 01:49:05,VALID,1008.47,VALID,0,VALID,104,VALID,0,VALID,22.7199,VALID,360,VALID,0,
2012-02-12, 01:50:05,VALID,1008.46,VALID,0,VALID,104,VALID,0,VALID,22.7216,VALID,360,VALID,0,
2012-02-12, 01:51:05,VALID,1008.45,VALID,0,VALID,104,VALID,0,VALID,22.7004,VALID,360,VALID,0,
2012-02-12, 01:52:05,VALID,1008.43,VALID,0,VALID,104,VALID,0,VALID,22.7199,VALID,360,VALID,0,
2012-02-12, 01:53:05,VALID,1008.45,VALID,0,VALID,104,VALID,0,VALID,22.7199,VALID,360,VALID,0,
2012-02-12, 01:54:05,VALID,1008.45,VALID,0,VALID,104,VALID,0,VALID,22.7199,VALID,360,VALID,0,
2012-02-12, 01:55:05,VALID,1008.44,VALID,0,VALID,104,VALID,0,VALID,22.7411,VALID,360,VALID,0,
2012-02-12, 01:56:05,VALID,1008.42,VALID,0,VALID,104,VALID,0,VALID,22.7606,VALID,360,VALID,0,
2012-02-12, 01:57:05,VALID,1008.39,VALID,0,VALID,104,VALID,0,VALID,22.7394,VALID,360,VALID,0,
2012-02-12, 01:58:05,VALID,1008.4,VALID,0,VALID,104,VALID,0,VALID,22.7394,VALID,360,VALID,0,
2012-02-12, 01:59:05,VALID,1008.39,VALID,0,VALID,104,VALID,0,VALID,22.7394,VALID,360,VALID,0,
2012-02-12, 02:00:05,VALID,1008.38,VALID,0,VALID,104,VALID,0,VALID,22.7199,VALID,360,VALID,0,
2012-02-12, 02:01:05,VALID,1008.39,VALID,0,VALID,104,VALID,0,VALID,22.7411,VALID,360,VALID,0,
2012-02-12, 02:02:05,VALID,1008.38,VALID,0,VALID,104,VALID,0,VALID,22.7199,VALID,360,VALID,0,
2012-02-12, 02:03:05,VALID,1008.39,VALID,0,VALID,104,VALID,0,VALID,22.7004,VALID,360,VALID,0,
2012-02-12, 02:04:05,VALID,1008.4,VALID,0,VALID,104,VALID,0,VALID,22.6809,VALID,360,VALID,0,
2012-02-12, 02:05:05,VALID,1008.41,VALID,0,VALID,104,VALID,0,VALID,22.642,VALID,360,VALID,0,
2012-02-12, 02:06:05,VALID,1008.42,VALID,0,VALID,104,VALID,0,VALID,22.6826,VALID,360,VALID,0,
2012-02-12, 02:07:05,VALID,1008.41,VALID,0,VALID,104,VALID,0,VALID,22.6614,VALID,360,VALID,0,
2012-02-12, 02:08:05,VALID,1008.42,VALID,0,VALID,104,VALID,0,VALID,22.6632,VALID,360,VALID,0,
2012-02-12, 02:09:05,VALID,1008.4,VALID,0,VALID,104,VALID,0,VALID,22.6225,VALID,360,VALID,0,
2012-02-12, 02:10:05,VALID,1008.42,VALID,0,VALID,104,VALID,0,VALID,22.642,VALID,360,VALID,0,
2012-02-12, 02:11:05,VALID,1008.41,VALID,0,VALID,104,VALID,0,VALID,22.6614,VALID,360,VALID,0,
2012-02-12, 02:12:05,VALID,1008.42,VALID,0,VALID,104,VALID,0,VALID,22.6809,VALID,360,VALID,0.334766,
2012-02-12, 02:13:05,VALID,1008.46,VALID,0,VALID,104,VALID,0,VALID,22.7004,VALID,360,VALID,0.621875,
2012-02-12, 02:14:05,VALID,1008.45,VALID,0,VALID,104,VALID,0,VALID,22.7004,VALID,360,VALID,0.100781,
2012-02-12, 02:15:05,VALID,1008.47,VALID,0,VALID,104,VALID,0,VALID,22.7021,VALID,360,VALID,0,
2012-02-12, 02:16:05,VALID,1008.47,VALID,0,VALID,104,VALID,0,VALID,22.6809,VALID,360,VALID,0.349219,
2012-02-12, 02:17:05,VALID,1008.49,VALID,0,VALID,104,VALID,0,VALID,22.7004,VALID,360,VALID,0.133203,
2012-02-12, 02:18:05,VALID,1008.46,VALID,0,VALID,104,VALID,0,VALID,22.7021,VALID,360,VALID,0.0980469,
2012-02-12, 02:19:05,VALID,1008.47,VALID,0,VALID,104,VALID,0,VALID,22.7216,VALID,360,VALID,0.142969,
2012-02-12, 02:20:05,VALID,1008.46,VALID,0,VALID,104,VALID,0,VALID,22.7216,VALID,360,VALID,0,
2012-02-12, 02:21:05,VALID,1008.47,VALID,0,VALID,104,VALID,0,VALID,22.6809,VALID,360,VALID,0,
2012-02-12, 02:22:05,VALID,1008.42,VALID,0,VALID,104,VALID,0,VALID,22.6809,VALID,360,VALID,0.00429688,
2012-02-12, 02:23:05,VALID,1008.42,VALID,0,VALID,104,VALID,0,VALID,22.7004,VALID,360,VALID,0,
2012-02-12, 02:24:05,VALID,1008.44,VALID,0,VALID,104,VALID,0,VALID,22.7199,VALID,360,VALID,0,
2012-02-12, 02:25:05,VALID,1008.44,VALID,0,VALID,104,VALID,0,VALID,22.7216,VALID,360,VALID,0,
2012-02-12, 02:26:05,VALID,1008.45,VALID,0,VALID,104,VALID,0,VALID,22.7216,VALID,360,VALID,0.0527344,
2012-02-12, 02:27:05,VALID,1008.42,VALID,0,VALID,104,VALID,0,VALID,22.6809,VALID,360,VALID,0.117188,
2012-02-12, 02:28:05,VALID,1008.44,VALID,0,VALID,104,VALID,0,VALID,22.6614,VALID,360,VALID,0.365625,
2012-02-12, 02:29:05,VALID,1008.41,VALID,0,VALID,104,VALID,0,VALID,22.6809,VALID,360,VALID,0.350391,
2012-02-12, 02:30:05,VALID,1008.41,VALID,0,VALID,104,VALID,0,VALID,22.6809,VALID,360,VALID,0.484766,
2012-02-12, 02:31:05,VALID,1008.38,VALID,0,VALID,104,VALID,0,VALID,22.6809,VALID,360,VALID,0.180469,
2012-02-12, 02:32:05,VALID,1008.37,VALID,0,VALID,104,VALID,0,VALID,22.642,VALID,360,VALID,0.141016,
2012-02-12, 02:33:05,VALID,1008.34,VALID,0,VALID,104,VALID,0,VALID,22.642,VALID,360,VALID,0.421875,
2012-02-12, 02:34:05,VALID,1008.34,VALID,0,VALID,104,VALID,0,VALID,22.642,VALID,360,VALID,0.266406,
2012-02-12, 02:35:05,VALID,1008.33,VALID,0,VALID,104,VALID,0,VALID,22.603,VALID,360,VALID,0.230078,
2012-02-12, 02:36:05,VALID,1008.33,VALID,0,VALID,104,VALID,0,VALID,22.5835,VALID,360,VALID,0.277734,
2012-02-12, 02:37:05,VALID,1008.31,VALID,0,VALID,104,VALID,0,VALID,22.5835,VALID,360,VALID,0.369531,
2012-02-12, 02:38:05,VALID,1008.29,VALID,0,VALID,104,VALID,0,VALID,22.5446,VALID,360,VALID,0.0882813,
2012-02-12, 02:39:05,VALID,1008.3,VALID,0,VALID,104,VALID,0,VALID,22.5446,VALID,360,VALID,0.00742187,
2012-02-12, 02:40:05,VALID,1008.28,VALID,0,VALID,104,VALID,0,VALID,22.5251,VALID,360,VALID,0,
2012-02-12, 02:41:05,VALID,1008.3,VALID,0,VALID,104,VALID,0,VALID,22.5251,VALID,360,VALID,0.142578,
2012-02-12, 02:42:05,VALID,1008.32,VALID,0,VALID,104,VALID,0,VALID,22.5056,VALID,360,VALID,0.226563,
2012-02-12, 02:43:05,VALID,1008.3,VALID,0,VALID,104,VALID,0,VALID,22.4861,VALID,12,VALID,0.526953,
2012-02-12, 02:44:05,VALID,1008.31,VALID,0,VALID,104,VALID,0,VALID,22.5056,VALID,55,VALID,0.555859,
2012-02-12, 02:45:05,VALID,1008.32,VALID,0,VALID,104,VALID,0,VALID,22.5463,VALID,55,VALID,0.596484,
2012-02-12, 02:46:05,VALID,1008.32,VALID,0,VALID,104,VALID,0,VALID,22.5446,VALID,55,VALID,0.681641,
2012-02-12, 02:47:05,VALID,1008.32,VALID,0,VALID,104,VALID,0,VALID,22.5658,VALID,55,VALID,0.473437,
2012-02-12, 02:48:05,VALID,1008.33,VALID,0,VALID,104,VALID,0,VALID,22.5251,VALID,55,VALID,0.377344,
2012-02-12, 02:49:05,VALID,1008.32,VALID,0,VALID,104,VALID,0,VALID,22.5446,VALID,55,VALID,0.461328,
2012-02-12, 02:50:05,VALID,1008.3,VALID,0,VALID,104,VALID,0,VALID,22.5446,VALID,55,VALID,0.172656,
2012-02-12, 02:51:05,VALID,1008.28,VALID,0,VALID,104,VALID,0,VALID,22.5251,VALID,55,VALID,0.351563,
2012-02-12, 02:52:05,VALID,1008.28,VALID,0,VALID,104,VALID,0,VALID,22.5251,VALID,55,VALID,0.2875,
2012-02-12, 02:53:05,VALID,1008.24,VALID,0,VALID,104,VALID,0,VALID,22.5251,VALID,55,VALID,0.496484,
2012-02-12, 02:54:05,VALID,1008.24,VALID,0,VALID,104,VALID,0,VALID,22.5446,VALID,55,VALID,0.731641,
2012-02-12, 02:55:05,VALID,1008.2,VALID,0,VALID,104,VALID,0,VALID,22.5446,VALID,39,VALID,0.498437,
2012-02-12, 02:56:05,VALID,1008.16,VALID,0,VALID,104,VALID,0,VALID,22.5251,VALID,39,VALID,0.258594,
2012-02-12, 02:57:05,VALID,1008.16,VALID,0,VALID,104,VALID,0,VALID,22.5056,VALID,39,VALID,0.332422,
2012-02-12, 02:58:05,VALID,1008.18,VALID,0,VALID,104,VALID,0,VALID,22.5056,VALID,39,VALID,0.375,
2012-02-12, 02:59:05,VALID,1008.14,VALID,0,VALID,104,VALID,0,VALID,22.5056,VALID,39,VALID,0,
2012-02-12, 03:00:05,VALID,1008.14,VALID,0,VALID,104,VALID,0,VALID,22.4861,VALID,39,VALID,0,
2012-02-12, 03:01:05,VALID,1008.15,VALID,0,VALID,104,VALID,0,VALID,22.4667,VALID,39,VALID,0.0417969,
2012-02-12, 03:02:05,VALID,1008.17,VALID,0,VALID,104,VALID,0.112112,VALID,22.4472,VALID,39,VALID,0.00507812,
2012-02-12, 03:03:05,VALID,1008.16,VALID,0,VALID,104,VALID,0,VALID,22.4472,VALID,39,VALID,0.190234,
2012-02-12, 03:04:05,VALID,1008.14,VALID,0,VALID,104,VALID,0,VALID,22.4472,VALID,39,VALID,0.0585938,
2012-02-12, 03:05:05,VALID,1008.16,VALID,0,VALID,104,VALID,0,VALID,22.4277,VALID,39,VALID,0.346484,
2012-02-12, 03:06:05,VALID,1008.12,VALID,0,VALID,104,VALID,0,VALID,22.4277,VALID,39,VALID,0.239844,
2012-02-12, 03:07:05,VALID,1008.14,VALID,0,VALID,104,VALID,0,VALID,22.4277,VALID,39,VALID,0.397266,
2012-02-12, 03:08:05,VALID,1008.12,VALID,0,VALID,104,VALID,0,VALID,22.4277,VALID,39,VALID,0.175391,
2012-02-12, 03:09:05,VALID,1008.09,VALID,0,VALID,104,VALID,0,VALID,22.4082,VALID,39,VALID,0.239453,
2012-02-12, 03:10:05,VALID,1008.07,VALID,0,VALID,104,VALID,0,VALID,22.3887,VALID,39,VALID,0,
2012-02-12, 03:11:05,VALID,1008.08,VALID,0,VALID,104,VALID,0,VALID,22.3693,VALID,39,VALID,0,
2012-02-12, 03:12:05,VALID,1008.07,VALID,0,VALID,104,VALID,0,VALID,22.371,VALID,39,VALID,0,
2012-02-12, 03:13:05,VALID,1008.07,VALID,0,VALID,104,VALID,0,VALID,22.3498,VALID,39,VALID,0,
2012-02-12, 03:14:05,VALID,1008.07,VALID,0,VALID,104,VALID,0,VALID,22.3108,VALID,39,VALID,0,
2012-02-12, 03:15:05,VALID,1008.08,VALID,0,VALID,104,VALID,0,VALID,22.3108,VALID,39,VALID,0,
2012-02-12, 03:16:05,VALID,1008.08,VALID,0,VALID,104,VALID,0,VALID,22.3108,VALID,39,VALID,0,
2012-02-12, 03:17:05,VALID,1008.07,VALID,0,VALID,104,VALID,0,VALID,22.3125,VALID,39,VALID,0.197266,
2012-02-12, 03:18:05,VALID,1008.08,VALID,0,VALID,104,VALID,0,VALID,22.332,VALID,39,VALID,0.305469,
2012-02-12, 03:19:05,VALID,1008.06,VALID,0,VALID,104,VALID,0,VALID,22.3303,VALID,39,VALID,0.276563,
2012-02-12, 03:20:05,VALID,1008.07,VALID,0,VALID,104,VALID,0,VALID,22.3693,VALID,39,VALID,0.495703,
2012-02-12, 03:21:05,VALID,1008.06,VALID,0,VALID,104,VALID,0,VALID,22.3887,VALID,39,VALID,0.522656,
2012-02-12, 03:22:05,VALID,1008.08,VALID,0,VALID,104,VALID,0,VALID,22.3887,VALID,39,VALID,0.332422,
2012-02-12, 03:23:05,VALID,1008.06,VALID,0,VALID,104,VALID,0,VALID,22.4099,VALID,39,VALID,0.303125,
2012-02-12, 03:24:04,VALID,1008.05,VALID,0,VALID,104,VALID,0,VALID,22.4099,VALID,39,VALID,0.45,
2012-02-12, 03:25:04,VALID,1008.11,VALID,0,VALID,104,VALID,0,VALID,22.4294,VALID,39,VALID,0.360938,
2012-02-12, 03:26:04,VALID,1008.13,VALID,0,VALID,104,VALID,0,VALID,22.3887,VALID,39,VALID,0.451172,
2012-02-12, 03:27:04,VALID,1008.15,VALID,0,VALID,104,VALID,0,VALID,22.3887,VALID,160,VALID,0.828516,
2012-02-12, 03:28:04,VALID,1008.16,VALID,0,VALID,104,VALID,0,VALID,22.4099,VALID,166,VALID,0.775,
2012-02-12, 03:29:04,VALID,1008.2,VALID,0,VALID,104,VALID,0,VALID,22.3693,VALID,166,VALID,0.533203,
2012-02-12, 03:30:04,VALID,1008.25,VALID,0,VALID,104,VALID,0,VALID,22.3887,VALID,166,VALID,0.327344,
2012-02-12, 03:31:04,VALID,1008.28,VALID,0,VALID,104,VALID,0,VALID,22.3887,VALID,166,VALID,0.197656,
2012-02-12, 03:32:04,VALID,1008.3,VALID,0,VALID,104,VALID,0,VALID,22.3693,VALID,166,VALID,0.448828,
2012-02-12, 03:33:04,VALID,1008.34,VALID,0,VALID,104,VALID,0,VALID,22.3887,VALID,166,VALID,0.210156,
2012-02-12, 03:34:04,VALID,1008.35,VALID,0,VALID,104,VALID,0,VALID,22.3887,VALID,166,VALID,0.0964844,
2012-02-12, 03:35:04,VALID,1008.38,VALID,0,VALID,104,VALID,0,VALID,22.3887,VALID,166,VALID,0,
2012-02-12, 03:36:04,VALID,1008.4,VALID,0,VALID,104,VALID,0,VALID,22.3693,VALID,166,VALID,0.351563,
2012-02-12, 03:37:04,VALID,1008.37,VALID,0,VALID,104,VALID,0,VALID,22.3693,VALID,166,VALID,0.107422,
2012-02-12, 03:38:04,VALID,1008.38,VALID,0,VALID,104,VALID,0.112112,VALID,22.3481,VALID,166,VALID,0,
2012-02-12, 03:39:04,VALID,1008.39,VALID,0,VALID,104,VALID,0,VALID,22.3693,VALID,166,VALID,0,
2012-02-12, 03:40:04,VALID,1008.34,VALID,0,VALID,104,VALID,0,VALID,22.3693,VALID,166,VALID,0,
2012-02-12, 03:41:04,VALID,1008.35,VALID,0,VALID,104,VALID,0,VALID,22.3693,VALID,123,VALID,0.689453,
2012-02-12, 03:42:04,VALID,1008.36,VALID,0,VALID,104,VALID,0,VALID,22.3887,VALID,119,VALID,0.525781,
2012-02-12, 03:43:04,VALID,1008.34,VALID,0,VALID,104,VALID,0.112112,VALID,22.3887,VALID,114,VALID,0.346875,
2012-02-12, 03:44:04,VALID,1008.34,VALID,0,VALID,104,VALID,0.112112,VALID,22.3887,VALID,82,VALID,0.474609,
2012-02-12, 03:45:04,VALID,1008.32,VALID,0,VALID,104,VALID,0,VALID,22.3887,VALID,58,VALID,0.355078,
2012-02-12, 03:46:04,VALID,1008.32,VALID,0,VALID,104,VALID,0,VALID,22.3887,VALID,59,VALID,0.505469,
2012-02-12, 03:47:04,VALID,1008.35,VALID,0,VALID,104,VALID,0,VALID,22.3887,VALID,58,VALID,0.491016,
2012-02-12, 03:48:04,VALID,1008.36,VALID,0,VALID,104,VALID,0,VALID,22.4082,VALID,58,VALID,0.3625,
2012-02-12, 03:49:04,VALID,1008.4,VALID,0,VALID,104,VALID,0.112112,VALID,22.3676,VALID,54,VALID,0.542188,
2012-02-12, 03:50:04,VALID,1008.41,VALID,0,VALID,104,VALID,0.112112,VALID,22.3887,VALID,56,VALID,0.444141,
2012-02-12, 03:51:04,VALID,1008.42,VALID,0,VALID,104,VALID,0,VALID,22.3676,VALID,55,VALID,0.660547,
2012-02-12, 03:52:04,VALID,1008.41,VALID,0,VALID,104,VALID,0,VALID,22.3481,VALID,55,VALID,0.475391,
2012-02-12, 03:53:04,VALID,1008.42,VALID,0,VALID,104,VALID,0,VALID,22.3303,VALID,55,VALID,0.290234,
2012-02-12, 03:54:04,VALID,1008.41,VALID,0,VALID,104,VALID,0,VALID,22.3303,VALID,55,VALID,0.56875,
2012-02-12, 03:55:04,VALID,1008.42,VALID,0,VALID,104,VALID,0,VALID,22.3303,VALID,48,VALID,0.396484,
2012-02-12, 03:56:04,VALID,1008.41,VALID,0,VALID,104,VALID,0,VALID,22.3108,VALID,48,VALID,0.353516,
2012-02-12, 03:57:04,VALID,1008.41,VALID,0,VALID,104,VALID,0,VALID,22.2914,VALID,48,VALID,0.522656,
2012-02-12, 03:58:04,VALID,1008.42,VALID,0,VALID,104,VALID,0.112112,VALID,22.2914,VALID,48,VALID,0.25,
2012-02-12, 03:59:04,VALID,1008.4,VALID,0,VALID,104,VALID,0.112112,VALID,22.3108,VALID,48,VALID,0.135547,
2012-02-12, 04:00:04,VALID,1008.4,VALID,0,VALID,104,VALID,0,VALID,22.2914,VALID,48,VALID,0.0339844,